Weather History for Budapest Ferihegy, Hungary

Change the Weather History Date:

Thursday, December 13, 2012

  Actual Average Record
Temperature  
Mean Temperature 20 °F -  
Max Temperature 28 °F 35 °F 50 °F (2000)
Min Temperature 12 °F 23 °F 12 °F (2012)
Degree Days  
Heating Degree Days 45    
Moisture  
Dew Point 15 °F    
Average Humidity 77    
Maximum Humidity 93    
Minimum Humidity 59    
Precipitation  
Precipitation 0.00 in - - ()
Sea Level Pressure  
Sea Level Pressure 30.20 in    
Wind  
Wind Speed 9 mph ()    
Max Wind Speed 16 mph    
Max Gust Speed -    
Visibility 6.2 miles    
Events      
Averages and records for this station are not official NWS values.
T = Trace of Precipitation, MM = Missing Value Source: Averaged Metar Reports

Daily Weather History Graph

Daily Weather History Graph

Search for Another Location

Airport:

Trip Planner

Search our weather history database for the weather conditions in past years. The results will help you decide how hot, cold, wet, or windy it might be!

Date:

Astronomy

Dec. 13, 2012 Rise Set
Actual Time 7:22 AM CET 3:52 PM CET
Civil Twilight 6:46 AM CET 4:27 PM CET
Nautical Twilight 6:07 AM CET 5:07 PM CET
Astronomical Twilight 5:30 AM CET 5:44 PM CET
Moon 7:10 AM CET (12/13) 4:15 PM CET (12/13)
Length of Visible Light 9h 41m
Length of Day
8h 29m
New Moon, 0% of the Moon is Illuminated
Dec 13
New Moon
Dec 20
First Quarter
Dec 28
Full
Jan 5
Last Quarter
Jan 11
New

Hourly Weather History & Observations

Time (CET) Temp. Windchill Dew Point Humidity Pressure Visibility Wind Dir Wind Speed Gust Speed Precip Events Conditions
12:00 AM 21.2 °F 8.9 °F 15.8 °F 80% 30.15 in - West 12.7 mph - N/A   Clear
12:30 AM 21.2 °F 7.3 °F 15.8 °F 80% 30.15 in - WNW 16.1 mph - N/A   Clear
1:00 AM 21.2 °F 7.8 °F 15.8 °F 80% 30.15 in - WNW 15.0 mph - N/A   Clear
1:30 AM 21.2 °F 9.5 °F 15.8 °F 80% 30.15 in - West 11.5 mph - N/A   Clear
2:00 AM 21.2 °F 9.5 °F 15.8 °F 80% 30.15 in - West 11.5 mph - N/A   Clear
2:30 AM 21.2 °F 8.3 °F 15.8 °F 80% 30.15 in - West 13.8 mph - N/A   Clear
3:00 AM 21.2 °F 8.9 °F 15.8 °F 80% 30.15 in - West 12.7 mph - N/A   Clear
3:30 AM 21.2 °F 8.9 °F 15.8 °F 80% 30.15 in - West 12.7 mph - N/A   Clear
4:00 AM 19.4 °F 11.5 °F 15.8 °F 86% 30.15 in 6.2 mi WSW 5.8 mph - N/A   Partly Cloudy
4:30 AM 17.6 °F 9.3 °F 14.0 °F 86% 30.18 in 6.2 mi SW 5.8 mph - N/A   Scattered Clouds
5:00 AM 15.8 °F - 14.0 °F 93% 30.18 in - Variable 1.2 mph - N/A   Clear
5:30 AM 15.8 °F 7.2 °F 14.0 °F 93% 30.18 in - WSW 5.8 mph - N/A   Clear
6:00 AM 17.6 °F 6.4 °F 14.0 °F 86% 30.18 in - West 9.2 mph - N/A   Clear
6:30 AM 17.6 °F 7.3 °F 14.0 °F 86% 30.18 in - West 8.1 mph - N/A   Clear
7:00 AM 17.6 °F 10.7 °F 15.8 °F 93% 30.18 in - SSW 4.6 mph - N/A   Clear
7:30 AM 15.8 °F 10.2 °F 14.0 °F 93% 30.18 in 6.2 mi Variable 3.5 mph - N/A   Scattered Clouds
8:00 AM 12.2 °F - 10.4 °F 92% 30.18 in 6.2 mi Variable 1.2 mph - N/A   Scattered Clouds
8:30 AM 15.8 °F - 14.0 °F 93% 30.21 in 6.2 mi Variable 2.3 mph - N/A   Mostly Cloudy
9:00 AM 17.6 °F 12.3 °F 14.0 °F 86% 30.21 in - Variable 3.5 mph - N/A   Clear
9:30 AM 21.2 °F 14.9 °F 15.8 °F 80% 30.21 in - SSE 4.6 mph - N/A   Clear
10:00 AM 21.2 °F 13.6 °F 15.8 °F 80% 30.21 in - South 5.8 mph - N/A   Clear
10:30 AM 23.0 °F 17.0 °F 15.8 °F 74% 30.21 in - South 4.6 mph - N/A   Clear
11:00 AM 23.0 °F 15.8 °F 15.8 °F 74% 30.21 in - SSE 5.8 mph - N/A   Clear
11:30 AM 24.8 °F 16.1 °F 15.8 °F 69% 30.21 in - South 8.1 mph - N/A   Clear
12:00 PM 24.8 °F 15.3 °F 17.6 °F 74% 30.21 in - South 9.2 mph - N/A   Clear
12:30 PM 26.6 °F 17.5 °F 17.6 °F 69% 30.21 in - South 9.2 mph - N/A   Clear
1:00 PM 28.4 °F 19.1 °F 17.6 °F 64% 30.21 in - South 10.4 mph - N/A   Clear
1:30 PM 28.4 °F 20.4 °F 17.6 °F 64% 30.21 in - South 8.1 mph - N/A   Clear
2:00 PM 28.4 °F 21.2 °F 17.6 °F 64% 30.21 in - South 6.9 mph - N/A   Clear
2:30 PM 28.4 °F 21.2 °F 15.8 °F 59% 30.21 in - South 6.9 mph - N/A   Clear
3:00 PM 26.6 °F 20.0 °F 15.8 °F 64% 30.21 in - SSE 5.8 mph - N/A   Clear
3:30 PM 23.0 °F 13.9 °F 15.8 °F 74% 30.21 in 6.2 mi SE 8.1 mph - N/A   Mostly Cloudy
4:00 PM 23.0 °F 15.8 °F 14.0 °F 68% 30.21 in - ESE 5.8 mph - N/A   Clear
4:30 PM 21.2 °F 11.7 °F 14.0 °F 74% 30.21 in - ESE 8.1 mph - N/A   Clear
5:00 PM 23.0 °F 12.4 °F 15.8 °F 74% 30.21 in - East 10.4 mph - N/A   Clear
5:30 PM 23.0 °F 13.9 °F 15.8 °F 74% 30.21 in - ESE 8.1 mph - N/A   Clear
6:00 PM 24.8 °F 16.1 °F 15.8 °F 69% 30.21 in - ESE 8.1 mph - N/A   Clear
6:30 PM 24.8 °F 14.6 °F 15.8 °F 69% 30.21 in - SE 10.4 mph - N/A   Clear
7:00 PM 23.0 °F 12.4 °F 15.8 °F 74% 30.21 in - East 10.4 mph - N/A   Clear
7:30 PM 23.0 °F 11.7 °F 15.8 °F 74% 30.21 in 6.2 mi East 11.5 mph - N/A   Mostly Cloudy
8:00 PM 23.0 °F 11.7 °F 15.8 °F 74% 30.21 in 6.2 mi East 11.5 mph - N/A   Mostly Cloudy
8:30 PM 23.0 °F 13.1 °F 15.8 °F 74% 30.21 in 6.2 mi East 9.2 mph - N/A   Mostly Cloudy
9:00 PM 23.0 °F 13.1 °F 15.8 °F 74% 30.21 in 6.2 mi ENE 9.2 mph - N/A   Mostly Cloudy
9:30 PM 23.0 °F 13.9 °F 15.8 °F 74% 30.21 in 6.2 mi ENE 8.1 mph - N/A   Mostly Cloudy
10:00 PM 23.0 °F 12.4 °F 15.8 °F 74% 30.21 in 6.2 mi ENE 10.4 mph - N/A   Overcast
10:30 PM 23.0 °F 13.9 °F 15.8 °F 74% 30.24 in 6.2 mi ENE 8.1 mph - N/A   Overcast
11:00 PM 23.0 °F 12.4 °F 15.8 °F 74% 30.24 in 6.2 mi East 10.4 mph - N/A   Mostly Cloudy
11:30 PM 23.0 °F 13.1 °F 15.8 °F 74% 30.24 in 6.2 mi ENE 9.2 mph - N/A   Overcast